Regional Weather Roundup
Issued by NWS

Home | Current Version | Previous Version | Graphics & Text | Print | Product List | Glossary On
Versions: 1 2 3 4 5 6 7 8 9 10 11 12 13 14 15 16 17 18 19 20 21 22 23 24 25 26 27 28
000
ASUS45 KTFX 220310
RWRMT
MONTANA REGIONAL WEATHER ROUNDUP
NATIONAL WEATHER SERVICE GREAT FALLS MT
900 PM MDT MON AUG 21 2017

NOTE: "FAIR" INDICATES FEW OR NO CLOUDS BELOW 12000 FEET WITH NO
SIGNIFICANT WEATHER AND/OR OBSTRUCTIONS TO VISIBILITY.

MTZ001>007-043-220400-
WEST OF THE DIVIDE

CITY           SKY/WX    TMP DP  RH WIND       PRES   REMARKS
MISSOULA       CLEAR     76  37  24 N9        30.11R
BUTTE          CLEAR     70  36  28 VRB3      30.24R
MULLAN PASS    CLEAR     63  36  36 NW5       30.28S
ANACONDA         N/A     64  36  34 W6        30.21R
DEER LODGE       N/A     63  37  39 CALM      30.21R
EUREKA           N/A     73  39  29 MISG      30.09R
HAMILTON         N/A     66  46  48 CALM      30.14R
LIBBY            N/A     73  41  31 CALM      30.08R
PLAINS           N/A     73  45  36 SE1       30.09R
RONAN            N/A     65  49  56 W2        30.16S
THOMPSON FALLS   N/A     75  40  28 CALM      30.11R
$$

MTZ008-052>055-220400-
SOUTHWEST MONTANA

CITY           SKY/WX    TMP DP  RH WIND       PRES   REMARKS
BOZEMAN        CLEAR     64  37  36 SE8       30.18R
DILLON         CLEAR     65  34  31 NE7       30.19R
W YELLOWSTONE  CLEAR     57  37  47 CALM      30.30R
ENNIS          PTCLDY    57  32  38 NE8       30.26R
THREE FORKS      N/A     65  42  43 CALM      30.15R
TWIN BRIDGES     N/A     67  29  24 CALM      30.16R
$$

MTZ009-010-012-014-046-048-049-054-220400-
EAST SLOPES AND CENTRAL MONTANA

CITY           SKY/WX    TMP DP  RH WIND       PRES   REMARKS
CUT BANK       MOCLDY    66  35  31 E6        30.16R
GREAT FALLS    PTCLDY    69  34  27 E8        30.15R
MALMSTROM AFB  PTCLDY    66  34  30 E6        30.15R
HELENA         CLEAR     71  37  28 W6        30.13S
CHOTEAU          N/A     64  36  34 E8        30.18R
CONRAD           N/A     67  41  38 N2        30.17R
FAIRFIELD        N/A     68  33  27 E6        30.15R
$$

MTZ011-013-016-021-045-047-050-051-220400-
NORTH CENTRAL MONTANA

CITY           SKY/WX    TMP DP  RH WIND       PRES   REMARKS
HAVRE          PTCLDY    66  40  38 E7        30.14R
LEWISTOWN      CLOUDY    64  34  32 E5        30.20R
N BAR RANCH      N/A     61  32  33 CALM      30.25R
CHINOOK          N/A     64  46  52 CALM      30.14R
$$

MTZ017>020-022>027-061-062-220400-
NORTHEAST MONTANA

CITY           SKY/WX    TMP DP  RH WIND       PRES   REMARKS
JORDAN           N/A     62  33  33 NE7       30.16R
SIDNEY         CLEAR     61  36  39 N3        30.15R
WOLF POINT     CLEAR     65  30  27 N10       30.15R
MALTA          CLEAR     61  39  44 NE5       30.15R
PLENTYWOOD       N/A     61  30  31 N6        30.15R
SCOBEY           N/A     57  28  33 CALM      30.15
$$

MTZ028>42-056>058-220400-
SOUTHCENTRAL AND SOUTHEAST MONTANA

CITY           SKY/WX    TMP DP  RH WIND       PRES   REMARKS
BAKER          CLEAR     61  35  37 N5        30.19R
BILLINGS       CLOUDY    73  33  23 E8        30.16R
LIVINGSTON     CLEAR     65  35  33 E7        30.18R
MILES CITY     PTCLDY    69  32  25 NE8       30.15R
BIG TIMBER     CLEAR     68  34  28 E10       30.21R
EKALAKA          N/A     64  33  31 CALM      30.17R
LAUREL           N/A     68  33  27 CALM      30.14F
$$

REGIONAL REPORTS...DAKOTAS

CITY           SKY/WX    TMP DP  RH WIND       PRES   REMARKS
WILLISTON      CLEAR     54  37  52 N9        30.13R
MINOT          CLEAR     60  40  47 W9        30.09R
DICKINSON      CLEAR     60  37  42 N7        30.14R
BEACH            N/A     55  37  50 CALM      30.21R
CROSBY           N/A     54  34  47 W8        30.14R
TIOGA            N/A     55  39  54 N6        30.15R
WATFORD CITY     N/A     54  36  50 CALM      30.13R
BISMARCK       PTCLDY    61  46  57 W3        30.11R
GRAND FORKS    PTCLDY    60  56  86 N10       29.98R
FARGO          PTCLDY    66  54  65 NW20      29.95R
BUFFALO SD       N/A     64  40  41 N7        30.12R
RAPID CITY     CLEAR     62  40  44 NE9       30.18R
$$

REGIONAL REPORTS...WYOMING/IDAHO/WASHINGTON

CITY           SKY/WX    TMP DP  RH WIND       PRES   REMARKS
GILLETTE       CLEAR     53  33  46 CALM      30.22R
SHERIDAN       CLEAR     62  40  44 CALM      30.20R
BUFFALO WY     CLEAR     60  35  39 W6        30.26R
CODY           CLEAR     66  34  30 NW5       30.25R
YELLOWSTONE LA   N/A     51  38  60 NW5       30.40R
IDAHO FALLS    CLEAR     66  38  35 SW5       30.17R
SALMON         CLEAR     69  36  29 SE6       30.10R
BOISE          CLEAR     79  41  25 NW5       30.04R
SPOKANE        MOCLDY    81  39  22 NE3       30.07F
$$

REGIONAL REPORTS...ALBERTA

CITY           SKY/WX    TMP DP  RH WIND       PRES   REMARKS
EDMONTON       MOCLDY    63  52  67 W3        30.07R
LETHBRIDGE     MOCLDY    64  41  42 E7        30.12R
MEDICINE HAT   CLOUDY    68  39  34 E5        30.11R
$$

REGIONAL REPORTS...SASKATCHEWAN

CITY           SKY/WX    TMP DP  RH WIND       PRES   REMARKS
SWIFT CURRENT  CLEAR     63  34  34 N3        30.16R
REGINA         PTCLDY    57  37  47 W3        30.13R
SASKATOON      PTCLDY    57  41  54 W5        30.12R
$$




USA.gov is the U.S. government's official web portal to all federal, state and local government web resources and services.